Quick links : Home Page : Contact Us : Index : Site Map : Search Site : Ephemerides


(107748) 2001 FQ35

Orbital Elements

The following orbital elements are taken from MPO110676
(107748) 2001 FQ35
Epoch 2007 Oct. 27.0 TT = JDT 2454400.5                 MPC
M 272.09259              (2000.0)            P               Q
n   0.25428585     Peri.  349.56218     -0.89260099     -0.45020265
a   2.4674853      Node   163.61600     +0.41955887     -0.84903711
e   0.0765705      Incl.    4.90223     +0.16502673     -0.27650237
P   3.88           H   15.9           G   0.15           U   2
From 87 observations at 3 oppositions, 2001-2005, mean residual 0".48.
An explanation of the orbital elements is available.

These orbital elements are also available in forms suitable for loading into a number of popular planetarium-type software programs.


Ephemeris

The following ephemeris is at intervals of five days. A daily ephemeris covering the same time interval is also available.

Personalized ephemerides for this (and other) objects may be generated using the Minor Planet & Comet Ephemeris Service.

Date    TT    R. A. (2000) Decl.     Delta      r     Elong.  Phase     V
2008 09 11    10 16.55   +09 33.6    3.231    2.280    16.0     7.0    20.8
 
2008 10 11    11 12.57   +04 27.9    3.081    2.279    30.6    12.9    20.9
2008 10 16    11 21.65   +03 35.9    3.048    2.279    33.1    13.8    20.9
2008 10 21    11 30.67   +02 44.0    3.013    2.279    35.7    14.7    20.9
2008 10 26    11 39.61   +01 52.3    2.976    2.280    38.2    15.7    20.9
2008 10 31    11 48.47   +01 01.0    2.936    2.280    40.9    16.6    20.9
2008 11 05    11 57.24   +00 10.3    2.895    2.281    43.5    17.4    20.9
2008 11 10    12 05.92   -00 39.6    2.852    2.281    46.2    18.3    20.9
2008 11 15    12 14.50   -01 28.6    2.806    2.282    49.0    19.1    20.9
2008 11 20    12 22.97   -02 16.5    2.759    2.283    51.7    19.9    20.9
2008 11 25    12 31.34   -03 03.2    2.710    2.284    54.6    20.6    20.9
2008 11 30    12 39.58   -03 48.5    2.659    2.285    57.4    21.3    20.9
2008 12 05    12 47.68   -04 32.2    2.607    2.286    60.4    22.0    20.8
2008 12 10    12 55.62   -05 14.1    2.553    2.288    63.4    22.6    20.8
2008 12 15    13 03.40   -05 54.1    2.498    2.289    66.4    23.2    20.8
2008 12 20    13 11.00   -06 32.0    2.442    2.291    69.5    23.7    20.8
2008 12 25    13 18.39   -07 07.7    2.384    2.292    72.7    24.2    20.7
2008 12 30    13 25.55   -07 40.9    2.326    2.294    75.9    24.6    20.7
2009 01 04    13 32.45   -08 11.5    2.267    2.296    79.2    24.9    20.6
2009 01 09    13 39.07   -08 39.3    2.207    2.298    82.6    25.1    20.6
2009 01 14    13 45.36   -09 04.2    2.147    2.300    86.1    25.3    20.5
2009 01 19    13 51.31   -09 26.0    2.086    2.302    89.7    25.3    20.5
2009 01 24    13 56.88   -09 44.5    2.026    2.304    93.4    25.2    20.4
2009 01 29    14 02.00   -09 59.6    1.966    2.306    97.2    25.1    20.3
2009 02 03    14 06.65   -10 11.1    1.906    2.309   101.1    24.8    20.3
2009 02 08    14 10.79   -10 18.9    1.848    2.311   105.2    24.3    20.2
2009 02 13    14 14.37   -10 22.8    1.790    2.314   109.4    23.7    20.1
2009 02 18    14 17.34   -10 22.7    1.735    2.316   113.7    23.0    20.0
2009 02 23    14 19.66   -10 18.5    1.681    2.319   118.2    22.1    19.9
2009 02 28    14 21.28   -10 10.2    1.630    2.322   122.9    21.0    19.8
2009 03 05    14 22.19   -09 57.7    1.581    2.325   127.8    19.7    19.7
2009 03 10    14 22.35   -09 41.1    1.536    2.328   132.8    18.2    19.6
2009 03 15    14 21.76   -09 20.5    1.495    2.331   138.0    16.6    19.5
2009 03 20    14 20.43   -08 56.2    1.458    2.334   143.3    14.8    19.4
2009 03 25    14 18.38   -08 28.5    1.426    2.337   148.8    12.8    19.3
2009 03 30    14 15.67   -07 57.9    1.399    2.340   154.4    10.6    19.1
2009 04 04    14 12.39   -07 25.1    1.378    2.344   160.1     8.4    19.0
2009 04 09    14 08.64   -06 51.1    1.364    2.347   165.6     6.1    18.9
2009 04 14    14 04.55   -06 16.5    1.355    2.350   170.7     4.0    18.8
2009 04 19    14 00.25   -05 42.5    1.353    2.354   173.8     2.7    18.7
2009 04 24    13 55.91   -05 10.0    1.357    2.357   172.0     3.4    18.8
2009 04 29    13 51.67   -04 40.0    1.368    2.361   167.2     5.4    18.9
2009 05 04    13 47.68   -04 13.4    1.386    2.365   161.8     7.6    19.0
2009 05 09    13 44.08   -03 50.8    1.409    2.368   156.3     9.9    19.2
2009 05 14    13 40.95   -03 32.8    1.438    2.372   150.8    12.0    19.3
2009 05 19    13 38.39   -03 19.7    1.472    2.376   145.4    14.0    19.4
2009 05 24    13 36.43   -03 11.5    1.511    2.379   140.2    15.8    19.5
2009 05 29    13 35.14   -03 08.4    1.555    2.383   135.2    17.4    19.7
2009 06 03    13 34.51   -03 10.2    1.602    2.387   130.3    18.9    19.8
2009 06 08    13 34.56   -03 16.6    1.653    2.391   125.6    20.2    19.9
2009 06 13    13 35.24   -03 27.4    1.707    2.395   121.1    21.3    20.0
2009 06 18    13 36.55   -03 42.1    1.763    2.399   116.8    22.2    20.1
2009 06 23    13 38.46   -04 00.5    1.822    2.403   112.6    23.0    20.2
2009 06 28    13 40.93   -04 22.2    1.882    2.407   108.6    23.6    20.3
2009 07 03    13 43.93   -04 47.0    1.944    2.411   104.7    24.1    20.4
2009 07 08    13 47.43   -05 14.2    2.007    2.415   100.9    24.4    20.5
2009 07 13    13 51.39   -05 43.8    2.071    2.419    97.3    24.6    20.5
2009 07 18    13 55.77   -06 15.3    2.135    2.424    93.7    24.7    20.6
2009 07 23    14 00.56   -06 48.5    2.200    2.428    90.3    24.7    20.7
2009 07 28    14 05.72   -07 23.1    2.265    2.432    86.9    24.6    20.7
2009 08 02    14 11.23   -07 58.9    2.330    2.436    83.6    24.5    20.8
2009 08 07    14 17.06   -08 35.5    2.394    2.440    80.4    24.2    20.9
2009 08 12    14 23.19   -09 12.8    2.459    2.444    77.3    23.9    20.9
2009 08 17    14 29.60   -09 50.5    2.522    2.449    74.2    23.4    21.0
2009 08 22    14 36.28   -10 28.5    2.585    2.453    71.2    23.0    21.0
2009 08 27    14 43.22   -11 06.4    2.647    2.457    68.2    22.4    21.0

Back to Observable Critical-List Minor Planets

MPC

Valid HTML 4.01!